Lincoln, NE

7:20 AM CDT on September 29, 2016 (GMT -0500)
Lincoln Municipal

Weather History for KLNK - August, 2013

Change the Weather History Date:

Thursday, August 22, 2013

  Actual Average Record
Temperature  
Mean Temperature 77 °F 75 °F  
Max Temperature 86 °F 86 °F 103 °F (1948)
Min Temperature 68 °F 63 °F 46 °F (1923)
Degree Days  
Heating Degree Days 0 0  
Month to date heating degree days 0 0  
Since 1 June heating degree days 23 17  
Since 1 July heating degree days 3 1  
Cooling Degree Days 12 10  
Month to date cooling degree days 180 246  
Year to date cooling degree days 844 957  
Since 1 June cooling degree days 757 878  
Growing Degree Days 28 (Base 50)    
Moisture  
Dew Point 66 °F    
Average Humidity 71    
Maximum Humidity 90    
Minimum Humidity 51    
Precipitation  
Precipitation 0.01 in 0.12 in 2.94 in (1933)
Month to date precipitation 1.11 2.44  
Year to date precipitation 20.45 20.53  
Snow  
Snow 0.00 in 0.00 in - ()
Month to date snowfall 0.0 0.0  
Since 1 July snowfall 0.0 0.0  
Snow Depth 0.00 in    
Sea Level Pressure  
Sea Level Pressure 30.03 in    
Wind  
Wind Speed 8 mph (East)    
Max Wind Speed 23 mph    
Max Gust Speed 30 mph    
Visibility 10 miles    
Events Rain    
T = Trace of Precipitation, MM = Missing Value Source: NWS Daily Summary

Daily Weather History Graph

Daily Weather History Graph

Search for Another Location

Airport or City:

Trip Planner

Search our weather history database for the weather conditions in past years. The results will help you decide how hot, cold, wet, or windy it might be!

Date:

Astronomy

Aug. 22, 2013 Rise Set
Actual Time 6:44 AM CDT 8:14 PM CDT
Civil Twilight 6:15 AM CDT 8:43 PM CDT
Nautical Twilight 5:40 AM CDT 9:18 PM CDT
Astronomical Twilight 5:03 AM CDT 9:54 PM CDT
Moon 8:57 PM CDT (8/22) 8:35 AM CDT (8/22)
Length of Visible Light 14h 27m
Length of Day
13h 30m
Waning Gibbous, 96% of the Moon is Illuminated
Aug 22
Waning Gibbous
Aug 28
Last Quarter
Sep 5
New
Sep 12
First Quarter
Sep 19
Full

Hourly Weather History & Observations

Time (CDT) Temp. Heat Index Dew Point Humidity Pressure Visibility Wind Dir Wind Speed Gust Speed Precip Events Conditions
12:54 AM 73.9 °F - 68.0 °F 82% 29.96 in 9.0 mi SSE 8.1 mph - N/A   Clear
1:54 AM 75.9 °F - 66.9 °F 74% 30.01 in 10.0 mi North 8.1 mph 29.9 mph N/A   Clear
2:54 AM 73.0 °F - 64.9 °F 76% 30.04 in 10.0 mi North 11.5 mph - N/A   Clear
3:54 AM 72.0 °F - 64.0 °F 76% 30.05 in 10.0 mi NE 9.2 mph - N/A   Clear
4:54 AM 71.1 °F - 64.0 °F 78% 30.04 in 10.0 mi NE 4.6 mph - N/A   Clear
5:54 AM 71.1 °F - 64.9 °F 81% 30.05 in 10.0 mi Calm Calm - N/A   Clear
6:54 AM 69.1 °F - 64.9 °F 87% 30.04 in 10.0 mi South 5.8 mph - N/A   Partly Cloudy
7:54 AM 70.0 °F - 66.0 °F 87% 30.01 in 10.0 mi SSE 10.4 mph - 0.01 in Rain Light Rain
8:54 AM 72.0 °F - 66.0 °F 81% 30.00 in 10.0 mi ESE 5.8 mph - 0.00 in   Clear
9:54 AM 73.9 °F - 64.9 °F 73% 30.02 in 10.0 mi SE 8.1 mph - N/A   Scattered Clouds
10:54 AM 77.0 °F - 66.0 °F 69% 30.06 in 10.0 mi ESE 6.9 mph - 0.00 in   Clear
11:54 AM 79.0 °F - 66.0 °F 64% 30.08 in 10.0 mi East 9.2 mph - N/A   Partly Cloudy
12:54 PM 81.0 °F 83.0 °F 66.0 °F 60% 30.06 in 10.0 mi East 11.5 mph 18.4 mph N/A   Clear
1:54 PM 82.9 °F 84.6 °F 64.9 °F 54% 30.04 in 10.0 mi East 11.5 mph - N/A   Clear
2:54 PM 84.0 °F 86.5 °F 66.9 °F 56% 30.03 in 10.0 mi East 9.2 mph - N/A   Clear
3:54 PM 84.9 °F 87.6 °F 66.9 °F 55% 30.02 in 10.0 mi East 8.1 mph - N/A   Clear
4:54 PM 86.0 °F 88.8 °F 66.9 °F 53% 30.01 in 10.0 mi East 11.5 mph - N/A   Clear
5:54 PM 84.9 °F 87.6 °F 66.9 °F 55% 30.00 in 10.0 mi ESE 8.1 mph - N/A   Clear
6:54 PM 84.0 °F 86.5 °F 66.9 °F 56% 30.01 in 10.0 mi ESE 8.1 mph - N/A   Clear
7:54 PM 80.1 °F 82.7 °F 68.0 °F 67% 30.01 in 10.0 mi ENE 10.4 mph - N/A   Clear
8:54 PM 75.9 °F - 68.0 °F 76% 30.02 in 10.0 mi East 8.1 mph - N/A   Clear
9:54 PM 75.0 °F - 68.0 °F 79% 30.04 in 10.0 mi ENE 5.8 mph - N/A   Clear
10:54 PM 73.9 °F - 69.1 °F 85% 30.04 in 10.0 mi East 3.5 mph - N/A   Clear
11:54 PM 72.0 °F - 68.0 °F 87% 30.05 in 10.0 mi ENE 5.8 mph - N/A   Clear